This is the latest recevied weather packets stored in our database for station/object OK2ILA-14. If no packets are shown the sender has not sent any weather packets the latest 10 day(s).
| Time | Temp. | Humidity | Pressure | Rain* | Wind** | Luminosity | Snow |
|---|---|---|---|---|---|---|---|
| 1777706071 | 19.44° C | 43% | 1024.4 hPa | - | - | - | - |
| 1777705470 | 19.44° C | 44% | 1024.5 hPa | - | - | - | - |
| 1777704861 | 19.44° C | 46% | 1024.6 hPa | - | - | - | - |
| 1777704269 | 18.33° C | 50% | 1024.6 hPa | - | - | - | - |
| 1777703661 | 17.22° C | 52% | 1024.7 hPa | - | - | - | - |
| 1777703061 | 16.67° C | 56% | 1024.6 hPa | - | - | - | - |
| 1777702461 | 14.44° C | 60% | 1024.7 hPa | - | - | - | - |
| 1777701861 | 13.89° C | 62% | 1024.7 hPa | - | - | - | - |
| 1777701261 | 12.22° C | 63% | 1024.6 hPa | - | - | - | - |
| 1777700661 | 12.22° C | 65% | 1024.7 hPa | - | - | - | - |
| 1777700060 | 11.67° C | 66% | 1024.7 hPa | - | - | - | - |
| 1777699460 | 10.56° C | 69% | 1024.7 hPa | - | - | - | - |
| 1777698860 | 10° C | 71% | 1024.8 hPa | - | - | - | - |
| 1777698260 | 9.44° C | 73% | 1024.8 hPa | - | - | - | - |
| 1777697660 | 8.33° C | 76% | 1024.6 hPa | - | - | - | - |
| 1777697060 | 7.78° C | 77% | 1024.7 hPa | - | - | - | - |
| 1777696459 | 7.22° C | 79% | 1024.6 hPa | - | - | - | - |
| 1777695859 | 6.67° C | 80% | 1024.6 hPa | - | - | - | - |
| 1777695259 | 6.11° C | 82% | 1024.5 hPa | - | - | - | - |
| 1777694659 | 5.56° C | 83% | 1024.5 hPa | - | - | - | - |
| 1777694059 | 5° C | 85% | 1024.5 hPa | - | - | - | - |
| 1777693459 | 4.44° C | 85% | 1024.5 hPa | - | - | - | - |
| 1777692859 | 4.44° C | 85% | 1024.4 hPa | - | - | - | - |
| 1777692258 | 4.44° C | 85% | 1024.4 hPa | - | - | - | - |
| 1777691658 | 4.44° C | 85% | 1024.3 hPa | - | - | - | - |
* Rain since midnight (hover to see other rain measurements)
** Current wind speed in m/s (hover to see current wind gust speed)